Weather History for Georgetown, SC

Change the Weather History Date:

Monday, May 6, 2013

  Actual Average Record
Temperature  
Mean Temperature 63 °F -  
Max Temperature 73 °F 80 °F 89 °F (2014)
Min Temperature 53 °F 55 °F 46 °F (2011)
Degree Days  
Heating Degree Days 2    
Growing Degree Days 13 (Base 50)    
Moisture  
Dew Point 58 °F    
Average Humidity 82    
Maximum Humidity 100    
Minimum Humidity 44    
Precipitation  
Precipitation 0.00 in - - ()
Sea Level Pressure  
Sea Level Pressure 29.88 in    
Wind  
Wind Speed 8 mph (SSW)    
Max Wind Speed 16 mph    
Max Gust Speed 24 mph    
Visibility 8 miles    
Events Fog , Rain , Thunderstorm    
Averages and records for this station are not official NWS values.
T = Trace of Precipitation, MM = Missing Value Source: NWS Daily Summary

Daily Weather History Graph

Daily Weather History Graph

Search for Another Location

Airport:

Trip Planner

Search our weather history database for the weather conditions in past years. The results will help you decide how hot, cold, wet, or windy it might be!

Date:

Astronomy

May. 06, 2013 Rise Set
Actual Time 6:24 AM EDT 8:03 PM EDT
Civil Twilight 5:57 AM EDT 8:30 PM EDT
Nautical Twilight 5:25 AM EDT 9:02 PM EDT
Astronomical Twilight 4:51 AM EDT 9:37 PM EDT
Moon 4:15 AM EDT (5/6) 5:10 PM EDT (5/6)
Length of Visible Light 14h 33m
Length of Day
13h 39m
Waning Crescent, 11% of the Moon is Illuminated
May 6
Waning Crescent
May 9
New
May 18
First Quarter
May 25
Full
May 31
Last Quarter

Hourly Weather History & Observations

Time (EDT) Temp. Dew Point Humidity Pressure Visibility Wind Dir Wind Speed Gust Speed Precip Events Conditions
12:15 AM 64.4 °F 64.4 °F 100% 29.87 in 7.0 mi ESE 11.5 mph 19.6 mph N/A   Overcast
12:35 AM 64.4 °F 64.4 °F 100% 29.87 in 10.0 mi ESE 15.0 mph 24.2 mph N/A   Overcast
12:55 AM 64.4 °F 64.4 °F 100% 29.87 in 10.0 mi ESE 16.1 mph 21.9 mph N/A   Overcast
1:15 AM 64.4 °F 64.4 °F 100% 29.87 in 10.0 mi ESE 11.5 mph 16.1 mph N/A   Overcast
1:35 AM 64.4 °F 64.4 °F 100% 29.86 in 10.0 mi SE 12.7 mph - N/A Rain Light Rain
1:55 AM 64.4 °F 64.4 °F 100% 29.86 in 10.0 mi SE 11.5 mph - N/A   Overcast
2:15 AM 64.4 °F 64.4 °F 100% 29.85 in 10.0 mi South 8.1 mph - N/A   Mostly Cloudy
2:35 AM 64.4 °F 64.4 °F 100% 29.85 in 10.0 mi SE 5.8 mph - N/A   Overcast
2:55 AM 64.4 °F 64.4 °F 100% 29.85 in 10.0 mi Calm Calm - N/A   Overcast
3:15 AM 62.6 °F 62.6 °F 100% 29.85 in 7.0 mi South 6.9 mph - N/A   Overcast
3:35 AM 62.6 °F 62.6 °F 100% 29.85 in 7.0 mi South 5.8 mph - N/A   Overcast
3:55 AM 62.6 °F 62.6 °F 100% 29.85 in 10.0 mi SSW 8.1 mph - N/A   Overcast
4:15 AM 60.8 °F 60.8 °F 100% 29.85 in 10.0 mi SSW 6.9 mph - N/A   Mostly Cloudy
4:35 AM 60.8 °F 60.8 °F 100% 29.85 in 7.0 mi SW 5.8 mph - N/A   Mostly Cloudy
4:55 AM 60.8 °F 60.8 °F 100% 29.86 in 5.0 mi SW 5.8 mph - N/A   Overcast
5:15 AM 60.8 °F 60.8 °F 100% 29.86 in 1.5 mi Calm Calm - N/A   Overcast
5:35 AM 60.8 °F 60.8 °F 100% 29.86 in 1.8 mi Calm Calm - N/A   Overcast
5:55 AM 60.8 °F 60.8 °F 100% 29.85 in 2.0 mi WSW 3.5 mph - N/A   Overcast
6:15 AM 60.8 °F 60.8 °F 100% 29.86 in 0.8 mi Calm Calm - N/A   Overcast
6:35 AM 60.8 °F 60.8 °F 100% 29.86 in 0.5 mi WSW 3.5 mph - N/A Fog Fog
6:55 AM 60.8 °F 60.8 °F 100% 29.87 in 0.2 mi Calm Calm - N/A Fog Fog
7:15 AM 60.8 °F 60.8 °F 100% 29.87 in 0.2 mi Calm Calm - N/A Fog Fog
7:35 AM 60.8 °F 60.8 °F 100% 29.88 in 0.2 mi Calm Calm - N/A Fog Fog
7:55 AM 60.8 °F 60.8 °F 100% 29.88 in 0.5 mi SW 3.5 mph - N/A Fog , Thunderstorm Fog
8:15 AM 60.8 °F 60.8 °F 100% 29.89 in 7.0 mi Calm Calm - N/A   Mostly Cloudy
8:35 AM 62.6 °F 62.6 °F 100% 29.89 in 10.0 mi Calm Calm - N/A   Scattered Clouds
8:55 AM 62.6 °F 62.6 °F 100% 29.89 in 10.0 mi WSW 5.8 mph - N/A   Clear
9:35 AM 66.2 °F 60.8 °F 83% 29.90 in 10.0 mi WSW 6.9 mph - N/A Thunderstorm Scattered Clouds
9:55 AM 68.0 °F 60.8 °F 78% 29.91 in 10.0 mi West 5.8 mph - N/A   Mostly Cloudy
10:15 AM 68.0 °F 59.0 °F 73% 29.91 in 10.0 mi WSW 5.8 mph - N/A   Mostly Cloudy
10:35 AM 68.0 °F 59.0 °F 73% 29.91 in 10.0 mi WSW 8.1 mph - N/A   Mostly Cloudy
10:55 AM 69.8 °F 60.8 °F 73% 29.91 in 10.0 mi SW 10.4 mph 16.1 mph N/A   Mostly Cloudy
11:15 AM 69.8 °F 59.0 °F 68% 29.91 in 10.0 mi South 6.9 mph - N/A   Scattered Clouds
11:35 AM 69.8 °F 59.0 °F 68% 29.91 in 10.0 mi SW 9.2 mph - N/A   Mostly Cloudy
11:55 AM 69.8 °F 59.0 °F 68% 29.91 in 10.0 mi SW 10.4 mph 17.3 mph N/A   Mostly Cloudy
12:15 PM 73.4 °F 57.2 °F 57% 29.90 in 10.0 mi SSW 15.0 mph 21.9 mph N/A   Scattered Clouds
12:35 PM 73.4 °F 55.4 °F 53% 29.90 in 10.0 mi SSW 13.8 mph 20.7 mph N/A   Scattered Clouds
1:15 PM 73.4 °F 50.0 °F 44% 29.88 in 10.0 mi South 10.4 mph 17.3 mph N/A   Clear
1:35 PM 73.4 °F 50.0 °F 44% 29.88 in 10.0 mi SSW 11.5 mph 21.9 mph N/A   Clear
1:55 PM 73.4 °F 51.8 °F 47% 29.88 in 10.0 mi SSW 12.7 mph 18.4 mph N/A   Clear
2:15 PM 73.4 °F 55.4 °F 53% 29.87 in 10.0 mi South 13.8 mph - N/A   Clear
2:35 PM 73.4 °F 55.4 °F 53% 29.87 in 10.0 mi South 12.7 mph 20.7 mph N/A   Clear
2:55 PM 71.6 °F 57.2 °F 60% 29.86 in 10.0 mi SSE 12.7 mph - N/A   Clear
3:15 PM 71.6 °F 59.0 °F 64% 29.86 in 10.0 mi South 10.4 mph - N/A   Clear
3:35 PM 71.6 °F 57.2 °F 60% 29.85 in 10.0 mi SSE 13.8 mph 18.4 mph N/A   Clear
3:55 PM 71.6 °F 57.2 °F 60% 29.85 in 10.0 mi South 10.4 mph 18.4 mph N/A   Clear
4:15 PM 71.6 °F 55.4 °F 57% 29.84 in 10.0 mi South 13.8 mph 20.7 mph N/A   Clear
4:35 PM 71.6 °F 55.4 °F 57% 29.84 in 10.0 mi SSW 13.8 mph - N/A   Clear
4:55 PM 71.6 °F 55.4 °F 57% 29.84 in 10.0 mi South 12.7 mph - N/A   Clear
5:15 PM 71.6 °F 55.4 °F 57% 29.84 in 10.0 mi South 11.5 mph - N/A   Clear
5:35 PM 69.8 °F 55.4 °F 60% 29.85 in 10.0 mi SSW 13.8 mph 18.4 mph N/A   Clear
5:55 PM 69.8 °F 55.4 °F 60% 29.85 in 10.0 mi SSW 12.7 mph 17.3 mph N/A   Clear
6:15 PM 69.8 °F 55.4 °F 60% 29.85 in 10.0 mi South 9.2 mph 16.1 mph N/A   Clear
6:35 PM 68.0 °F 55.4 °F 64% 29.86 in 10.0 mi South 8.1 mph - N/A   Clear
6:55 PM 68.0 °F 55.4 °F 64% 29.86 in 10.0 mi South 10.4 mph - N/A   Clear
7:15 PM 66.2 °F 55.4 °F 68% 29.87 in 10.0 mi South 10.4 mph - N/A   Clear
7:35 PM 64.4 °F 53.6 °F 68% 29.88 in 10.0 mi SSW 9.2 mph - N/A   Clear
7:55 PM 62.6 °F 53.6 °F 72% 29.88 in 10.0 mi South 6.9 mph - N/A   Clear
8:15 PM 60.8 °F 53.6 °F 77% 29.89 in 10.0 mi SSW 5.8 mph - N/A   Clear
8:35 PM 59.0 °F 53.6 °F 82% 29.89 in 10.0 mi SSW 4.6 mph - N/A   Clear
8:55 PM 59.0 °F 53.6 °F 82% 29.90 in 10.0 mi SSW 4.6 mph - N/A   Clear
9:15 PM 57.2 °F 53.6 °F 88% 29.90 in 10.0 mi SSW 3.5 mph - N/A   Clear
9:35 PM 57.2 °F 53.6 °F 88% 29.91 in 10.0 mi SW 3.5 mph - N/A   Clear
9:55 PM 55.4 °F 55.4 °F 100% 29.92 in 10.0 mi SW 3.5 mph - N/A   Clear
10:15 PM 55.4 °F 55.4 °F 100% 29.92 in 10.0 mi SSW 4.6 mph - N/A   Clear
10:35 PM 55.4 °F 55.4 °F 100% 29.93 in 10.0 mi SW 4.6 mph - N/A   Clear
10:55 PM 55.4 °F 55.4 °F 100% 29.93 in 10.0 mi SW 5.8 mph - N/A   Clear
11:15 PM 55.4 °F 55.4 °F 100% 29.93 in 10.0 mi WSW 4.6 mph - N/A   Clear
11:35 PM 53.6 °F 53.6 °F 100% 29.93 in 10.0 mi SW 4.6 mph - N/A   Clear
11:55 PM 53.6 °F 53.6 °F 100% 29.93 in 10.0 mi WSW 4.6 mph - N/A   Clear